LUCH-5B

Last updated on Thu Nov 21 2024 00:02:42 GMT+0000 (Coordinated Universal Time)

1 38977U 12061A 24325.26289157 -.00000136 00000+0 00000+0 0 9999 2 38977 9.2333 55.3130 0006668 171.6994 271.0622 1.00271378 43855
UTC large
Height (km)
Speed (km/s)
/
Latitude / Longitude
Inclination (degrees)
Orbital Period (minutes)
Azimuth
Elevation
Range (km)
Doppler Factor

Next 0 passes for location: London (51.5072 / 0.1276)

Sorry there are no passes over London.